カタログに戻る

STARLINK-37465

運用中通信SSO
NORAD 68847·PAYLOAD·🇺🇸 United States

打ち上げ Apr 26, 2026 から Vandenberg Space Force Base

Loading…

次のパス (今後24時間)

TLE

最新Source: CelesTrak SupGP

元期: Sep 15, 2026, 04:01 UTC

1 68847C 26094J   26258.16784722 -.00058618  00000+0 -18200-2 0  2584
2 68847  97.2831 271.3443 0001428  89.8383 102.8042 15.33463325    16

AllMySatでSTARLINK-37465をリアルタイム追跡

Download on the App Store